CAPE
511 735 840 1099 101 1 283 449 903 617 320 336 110 503 482 663 294 121 797 1001 1363 1479 1760 2581 3132 2720 2229 2236 2400 2343 2139 1984 1736 2051 2225 2004 2225 2282 2301 2115 2129 2476 2220 2192 2099 2067 1237 2379 2050
560 745 1378 816 91 43 159 337 270 363 399 381 222 256 775 1173 1328 1081 849 1139 1455 1757 2020 2238 2930 3094 2350 2238 2241 2195 2175 1984 1760 2397 2113 1880 2059 2282 2330 2373 2440 2207 2290 2163 2131 1878 1252 2391 2026
295 414 533 435 178 213 241 278 107 392 495 581 728 586 979 1229 1106 762 1086 1241 1571 1789 1992 2169 2966 3208 2443 2247 2249 2249 2196 1879 2152 2079 1872 1616 1829 2012 2286 2351 2213 2174 2088 1807 1958 1628 1175 1933 1723
1589 1349 741 220 290 618 520 451 788 828 485 708 946 571 907 1067 901 1064 1194 1424 1566 1848 1979 2648 3036 2584 2516 2074 2349 2283 2272 1775 2610 1761 1797 1504 1495 1777 2188 2186 2042 2084 2143 1962 1589 849 1176 2010 1739
1363 508 217 365 394 414 382 583 797 1261 1062 899 598 788 942 951 1027 1096 1327 1391 1575 1696 1844 2187 3170 3115 2754 2524 2392 2456 2373 1969 1840 1818 1944 1881 1638 1757 1849 2215 1964 2077 2177 2182 1587 775 1515 1861 1341
712 127 122 177 146 129 430 838 883 1440 1169 837 653 785 870 1004 1090 1158 1087 1258 1483 1574 1866 2181 2728 2942 2871 2592 2600 2727 2182 2274 1906 2199 2042 1922 1954 2029 1888 2123 2200 1848 2006 2048 1923 1685 1564 1614 1577
1284 39 59 258 194 307 329 923 1404 1304 1097 979 742 809 963 1001 1036 910 865 1135 1256 1736 1915 1996 1936 2147 2533 2747 2658 2705 2189 2285 1920 2457 1895 1945 2022 1932 2021 1926 2134 1884 2002 2011 1990 1786 1307 730 794
498 53 124 197 412 409 344 309 745 1023 1177 1091 859 818 924 1037 905 784 1010 1024 1293 1660 1791 1895 1924 1986 2136 2158 2715 2434 2007 2329 1785 1931 1868 2165 1836 1700 1844 2384 2115 1957 1843 1871 1989 1820 1203 1028 1259
181 101 132 241 536 474 358 256 695 1072 1068 911 1009 854 851 953 803 1114 1201 1227 1332 1547 1650 1728 1820 1871 2135 2190 2189 2289 1948 2475 2024 1521 1564 1992 985 1173 1406 1719 1980 1911 1718 1716 1737 1692 1509 1372 987
188 88 102 328 363 383 361 184 86 611 846 978 927 859 925 808 1059 1022 958 1037 951 1209 1421 1571 1633 1768 1717 1804 1799 1775 1383 1854 1923 1695 1418 1279 898 1017 1103 1520 1788 1765 1649 1692 1688 1512 1462 1062 656
0 18 114 357 437 427 365 315 295 643 728 947 903 860 871 995 1032 990 995 928 921 1100 1264 1399 1500 1649 1605 1568 1697 1524 1447 1810 1993 1843 1577 993 882 890 1024 1207 1504 1246 1450 1323 1395 1171 983 391 475
70 208 178 771 631 435 485 133 32 60 293 967 997 858 937 1008 988 983 991 861 851 1035 1106 1209 1350 1383 1470 1315 1467 1415 1516 1686 1430 1401 1603 940 417 483 611 581 760 1209 1103 836 924 992 880 309 124
117 167 196 711 672 517 335 277 227 540 787 1015 1271 1213 1171 1081 1017 975 1050 882 846 868 942 1041 1134 1061 1143 1067 1140 1061 1024 1119 1250 1153 1287 856 511 343 610 310 383 907 990 563 619 610 410 130 154
0 8 39 364 599 548 362 469 164 640 777 979 1072 1300 1315 1229 1153 1018 979 972 940 810 825 896 843 827 819 1210 1090 786 698 509 493 926 932 927 697 194 589 332 206 261 623 483 176 188 139 100 113
0 0 1 500 502 517 389 258 203 211 562 938 934 822 1229 1211 1178 1152 1066 1034 972 858 809 781 773 552 476 1344 1209 982 881 844 636 439 393 645 650 187 428 444 214 168 120 253 311 132 101 65 81
0 0 0 358 487 567 319 115 175 225 561 702 817 888 921 1087 1154 1195 1179 1173 1135 892 836 710 677 426 364 1263 1173 1009 760 803 774 815 738 490 419 469 267 377 312 206 195 313 279 309 167 102 73
0 0 3 4 505 552 283 32 63 315 577 819 889 906 898 967 938 1134 1166 1177 1058 968 803 654 475 466 228 906 1233 1002 749 516 566 874 958 883 711 529 513 268 202 350 359 204 271 266 174 144 127
0 0 1 5 1 152 306 226 140 326 338 783 926 883 856 882 934 886 956 1015 1054 952 872 783 528 490 259 544 698 808 792 540 510 535 574 617 805 702 370 173 367 467 212 208 203 159 135 154 129
0 0 0 0 3 1 20 82 165 214 411 703 856 944 906 884 849 822 857 954 936 873 815 821 716 585 437 379 425 586 410 409 605 705 771 669 598 552 265 156 358 330 255 256 214 195 126 101 140
0 0 0 0 0 0 0 35 108 215 254 442 653 799 838 935 930 899 909 900 972 979 874 755 741 718 569 410 439 471 580 633 689 722 716 644 468 404 255 154 251 269 228 172 266 219 216 143 165
0 0 0 0 0 0 1 0 38 208 290 419 710 702 361 423 893 1006 1046 974 917 930 1015 1111 843 709 634 434 722 536 478 697 614 471 798 797 529 465 313 244 331 243 206 131 256 279 228 108 121
0 0 0 0 0 0 0 0 7 17 288 398 451 709 653 502 539 1022 1144 1134 1056 1049 1063 1196 1112 931 858 760 653 697 603 501 453 256 413 721 682 707 380 350 240 287 256 150 179 253 237 142 123
0 0 0 0 0 0 0 0 0 26 12 84 278 284 552 502 563 984 1213 1165 1111 1099 1122 1185 1166 1070 886 799 713 719 589 426 406 444 317 597 701 536 466 360 399 334 366 301 182 177 184 148 113
0 0 0 0 0 0 0 0 0 0 1 51 153 217 245 601 873 1057 1239 1159 1109 1140 1087 1165 989 959 921 976 923 880 820 695 577 573 514 634 698 713 597 493 462 432 527 546 420 310 369 220 135
0 0 0 0 0 0 0 0 0 0 0 91 220 312 311 865 1064 1176 1211 1184 1174 1168 1149 1213 1239 1234 1241 1142 1190 1178 1101 967 838 808 779 788 795 748 692 653 550 586 600 566 462 167 265 199 140
0 0 0 0 0 0 0 0 0 0 15 6 39 163 231 879 1160 1189 1250 1236 1234 1242 1221 1287 1361 1354 1398 1401 1318 1396 1419 1303 1299 1061 964 964 842 744 715 779 760 701 567 499 361 206 116 62 60
0 0 0 0 0 0 0 0 2 17 18 18 175 520 1241 1068 1232 1219 1278 1319 1303 1376 1328 1340 1448 1407 1410 1433 1389 1462 1471 1477 1487 1337 1301 1192 1046 982 918 800 866 809 607 471 316 228 109 65 29
0 0 0 0 0 0 0 0 0 0 27 22 32 233 567 1417 1410 1446 1520 1436 1412 1442 1436 1454 1527 1541 1517 1526 1421 1417 1582 1735 1786 1794 1880 1719 1559 1340 1172 1022 938 828 657 487 443 326 195 105 56
0 0 0 0 0 0 0 0 0 0 0 0 0 17 47 1474 1533 1593 1614 1642 1553 1473 1488 1537 1576 1804 1767 1702 1646 1730 1756 1859 1914 1974 2036 2088 1895 1857 1461 1119 1038 891 770 677 612 426 362 212 140
0 0 0 0 0 0 0 0 0 0 0 0 0 57 83 265 1528 1618 1646 1749 1664 1583 1506 1597 1667 1850 2002 2089 2062 2086 2173 2204 2058 2156 2274 2439 2366 2134 1823 1567 1428 1244 1070 995 591 430 319 194 153
CIN
-119 -113 -110 -74 -150 -11 -19 -49 -53 -23 -40 -69 -27 -73 -115 -133 -149 -50 -187 -136 -84 -28 -3 0 0 0 0 0 0 0 0 -2 -4 0 0 0 0 0 0 0 0 0 0 0 0 0 0 0 0
-162 -150 -77 -121 -123 -96 -28 -90 -54 -41 -44 -54 -66 -97 -89 -110 -122 -158 -152 -84 -75 -16 -1 -3 -1 0 0 0 -1 -4 -2 -6 -9 0 0 0 0 0 0 0 0 0 0 0 0 0 -1 0 0
-268 -227 -96 -139 -50 -7 -15 -107 -58 -122 -79 -53 -76 -80 -108 -136 -166 -196 -142 -77 -32 -8 0 -4 0 0 0 0 -1 -3 -1 -5 0 0 0 0 0 0 0 0 0 0 0 0 0 0 -1 0 0
-79 -83 -143 -50 -43 -63 -63 -24 -105 -118 -181 -71 -85 -113 -132 -164 -223 -180 -142 -64 -26 -6 0 0 0 0 0 0 0 0 0 -2 0 0 0 0 0 0 0 0 0 0 0 0 0 -21 -1 0 0
-104 -214 -129 -81 -20 -60 -43 -46 -91 -75 -63 -46 -104 -158 -147 -134 -162 -156 -140 -74 -47 -15 -1 0 0 0 0 0 0 0 0 0 -1 0 0 0 0 0 0 0 0 0 0 0 0 -18 0 0 0
-105 -229 -186 -9 -43 -91 -40 -58 -51 -39 -79 -81 -131 -145 -134 -166 -117 -141 -153 -114 -64 -56 -7 0 0 0 0 0 0 0 0 0 0 0 0 0 0 0 0 0 0 0 0 0 0 0 0 0 0
-79 -12 -18 -109 -42 -107 -40 -57 -34 -70 -90 -90 -116 -107 -145 -119 -136 -164 -147 -109 -85 -35 -18 0 -1 -1 0 0 0 0 0 0 0 0 0 0 0 0 0 0 0 0 0 0 0 0 -1 -16 -13
-125 -105 -31 -116 -71 -45 -78 -53 -54 -63 -96 -101 -95 -137 -152 -115 -105 -100 -76 -83 -59 -28 -21 -12 -2 -1 -1 -1 0 0 0 0 0 0 0 0 0 0 0 0 0 0 0 0 0 0 -2 -7 -4
-192 -113 -90 -46 -95 -74 -92 -40 -61 -63 -111 -146 -130 -126 -146 -144 -96 -57 -27 -26 -30 -11 -11 -6 -6 -3 -3 -3 -1 -1 0 0 0 -1 0 -1 -10 -2 -1 -2 0 0 0 0 0 0 0 0 -5
-170 -35 -52 -101 -53 -66 -63 -39 -24 -121 -169 -156 -143 -204 -160 -132 -81 -89 -84 -68 -68 -50 -26 -12 -8 -3 -9 -8 -3 -1 -4 -1 -2 -2 -3 -9 -19 -14 -8 -3 0 0 0 0 0 -4 -3 -21 -24
0 -38 -40 -91 -108 -46 -37 -44 -250 -147 -131 -168 -274 -266 -177 -106 -85 -107 -114 -166 -188 -124 -58 -32 -15 -1 -6 -10 -2 -3 -8 -1 -1 -1 -15 -23 -20 -22 -15 -3 -2 -1 -3 0 0 -4 -11 -30 -40
-53 -145 -130 -106 -141 -116 -40 -269 -65 -65 -220 -179 -292 -253 -235 -121 -104 -101 -123 -146 -147 -122 -102 -68 -36 -20 -14 -30 -20 -19 -8 -4 -16 -16 -8 -34 -61 -46 -38 -29 -15 0 -1 -13 -12 -15 -12 -41 -58
-166 -134 -77 -104 -126 -48 -52 -230 -211 -240 -188 -203 -278 -252 -223 -172 -129 -102 -143 -35 -53 -155 -135 -119 -84 -76 -57 -60 -55 -56 -56 -44 -37 -40 -25 -44 -58 -46 -43 -47 -34 -9 -11 -21 -33 -26 -41 -59 -55
0 -56 -59 -101 -127 -76 -83 -192 -105 -328 -202 -190 -281 -243 -227 -206 -160 -102 -92 -127 -87 -108 -160 -133 -136 -134 -109 -68 -88 -124 -122 -131 -101 -62 -59 -62 -59 -66 -46 -48 -54 -49 -38 -49 -66 -67 -63 -75 -94
0 0 -5 -107 -152 -47 -123 -148 -71 -354 -242 -193 -203 -249 -200 -192 -172 -156 -151 -103 -66 -133 -197 -183 -168 -177 -193 -67 -95 -110 -118 -103 -118 -142 -120 -73 -74 -33 -60 -52 -62 -74 -77 -68 -56 -58 -16 -46 -78
0 0 0 -102 -129 -146 -108 -60 -189 -186 -253 -253 -200 -189 -193 -220 -174 -133 -95 -104 -88 -99 -215 -207 -203 -40 -209 -82 -96 -117 -117 -106 -106 -97 -100 -126 -88 -60 -34 -58 -53 -57 -53 -28 -46 -44 -41 -19 -15
0 0 -5 -2 -117 -148 -117 -44 -36 -276 -184 -318 -317 -211 -170 -159 -190 -167 -102 -81 -89 -109 -157 -131 -99 -60 -215 -109 -82 -106 -113 -132 -110 -65 -63 -52 -64 -44 -35 -62 -72 -97 -43 -30 -89 -46 -43 -40 -22
0 0 -7 -25 -11 -47 -101 -109 -261 -194 -162 -198 -226 -250 -216 -179 -157 -177 -139 -96 -61 -90 -105 -141 -198 -59 -68 -114 -93 -76 -68 -105 -90 -21 -30 -68 -44 -46 -45 -61 -79 -42 -47 -37 -76 -56 -71 -62 -20
0 0 0 0 -13 -3 -1 -35 -249 -168 -161 -215 -251 -312 -234 -196 -152 -134 -142 -105 -40 -53 -85 -159 -92 -70 -70 -46 -118 -59 -85 -92 -61 -40 -32 -32 -46 -51 -48 -87 -59 -45 -36 -47 -30 -44 -48 -71 -35
0 0 0 0 0 0 0 -29 -180 -192 -220 -433 -297 -241 -219 -206 -151 -130 -93 -86 -77 -47 -45 -37 -143 -55 -52 -40 -11 -6 -71 -49 -21 -45 -38 -35 -32 -95 -4 -73 -55 -80 -47 -81 -53 -80 -54 -46 -44
0 0 0 0 0 0 -27 0 -150 -351 -363 -403 -421 -298 -150 -133 -180 -183 -52 -73 -77 -69 -53 -49 -32 -50 -63 -45 -69 -31 -40 -18 -20 -36 -53 -28 -22 -30 -55 -58 -43 -67 -46 -85 -76 -58 -45 -50 -69
0 0 0 0 0 0 0 0 -1 -110 -332 -367 -458 -360 -141 -45 -156 -115 -61 -49 -40 -39 -70 -60 -51 -42 -30 -14 -36 -54 -46 -45 -43 -41 -55 -49 -30 -28 -81 -62 -68 -76 -67 -56 -92 -78 -61 -47 -57
0 0 0 0 0 0 0 0 0 -110 -87 -310 -278 -442 -267 -170 -70 -287 -91 -52 -40 -98 -94 -87 -65 -63 -52 -39 -46 -36 -49 -46 -107 -16 -145 -119 -72 -42 -114 -97 -72 -84 -81 -63 -96 -111 -58 -63 -47
0 0 0 0 0 0 0 0 0 0 -28 -117 -450 -364 -310 -448 -309 -268 -98 -80 -66 -45 -52 -46 -64 -79 -46 -45 -41 -44 -53 -61 -77 -44 -90 -150 -116 -109 -114 -111 -64 -117 -71 -58 -48 -93 -43 -40 -35
0 0 0 0 0 0 0 0 0 0 0 -93 -140 -152 -251 -356 -235 -208 -175 -118 -86 -71 -65 -54 -62 -56 -43 -42 -40 -39 -40 -55 -66 -47 -53 -54 -137 -132 -127 -110 -98 -92 -65 -60 -50 -70 -45 -59 -38
0 0 0 0 0 0 0 0 0 0 -89 -37 -33 -349 -221 -315 -239 -194 -192 -134 -78 -70 -64 -285 -62 -65 -49 -47 -39 -29 -23 -33 -47 -55 -47 -29 -35 -102 -126 -106 -81 -40 -75 -74 -53 -8 0 -1 -55
0 0 0 0 0 0 0 0 -5 -76 -37 -20 -88 -116 -277 -298 -235 -214 -173 -142 -98 -80 -89 -77 -259 -68 -55 -54 -44 -22 -20 -26 -21 -31 -8 -17 -16 -69 -49 -38 -76 -48 -63 -35 -31 -19 -3 -10 0
0 0 0 0 0 0 0 0 0 0 -34 -40 -38 -89 -174 -214 -206 -74 -102 -118 -135 -110 -96 -95 -253 -229 -50 -42 -35 -45 -10 -9 -3 -4 -2 -1 0 -5 -5 -31 -47 -43 -53 -32 -50 -23 -19 -3 -3
0 0 0 0 0 0 0 0 0 0 0 0 -2 -51 -40 -186 -192 -147 -119 -109 -118 -131 -146 -130 -173 -340 -319 -212 -34 -223 -151 -5 -3 -2 -1 -1 -1 -2 -11 -31 -32 -28 -25 -19 -3 -23 -5 -15 -18
0 0 0 0 0 0 0 0 0 0 0 0 -5 -57 -36 -37 -192 -152 -148 -84 -103 -132 -174 -141 -194 -367 -322 -316 -274 -225 -174 -122 -69 -11 -10 -3 -5 -6 -5 -16 -14 -8 -7 0 -14 -20 -23 -34 -38
Wind_Speed
16 15 14 15 14 nan 18 5 13 11 12 18 14 13 13 9 12 11 11 15 17 13 11 14 17 17 17 16 16 16 14 13 10 8 5 4 5 5 6 7 9 8 8 5 9 8 1 2 5
16 11 18 16 nan nan 19 15 15 13 15 13 11 8 9 7 5 12 10 15 22 15 11 10 16 17 19 17 15 14 14 12 10 8 6 6 7 7 8 8 8 6 6 7 8 5 5 2 4
14 21 15 11 11 17 17 20 13 14 14 11 10 10 7 7 10 15 9 17 17 14 12 11 14 16 19 19 15 14 14 14 12 10 9 9 9 9 11 9 6 6 7 6 5 6 5 3 4
17 15 16 7 7 19 24 21 15 14 11 18 11 7 5 11 19 11 17 15 14 13 11 16 16 16 18 20 16 15 15 14 13 10 10 9 9 11 9 10 8 7 7 7 6 7 7 4 4
14 17 5 11 5 10 24 21 10 11 13 13 8 8 9 11 14 21 20 15 14 11 11 14 16 15 16 18 17 16 15 14 12 12 10 10 11 11 11 10 10 9 7 7 8 9 8 7 6
11 14 10 10 7 15 6 10 19 18 15 8 6 8 8 19 22 18 18 18 13 13 12 12 16 15 14 16 17 17 15 15 12 10 10 11 10 10 10 9 12 11 9 7 10 10 10 8 8
7 nan nan 15 12 14 7 18 20 19 15 12 12 3 4 14 13 18 14 13 13 11 12 11 10 13 15 14 15 16 16 17 12 10 9 9 9 11 10 8 11 10 9 7 8 8 8 8 6
6 nan 14 8 19 3 21 21 18 24 24 11 8 7 11 19 16 13 9 9 10 8 10 11 9 8 6 7 15 15 16 17 14 8 9 11 12 14 12 10 12 11 10 10 9 8 8 8 7
5 12 9 16 15 20 23 17 19 16 12 20 24 14 13 21 17 15 11 7 5 6 6 7 8 5 4 2 7 14 16 17 16 7 9 9 7 9 11 11 14 14 14 12 12 10 8 8 7
5 nan 15 11 13 25 12 20 nan 22 14 18 22 27 21 21 16 17 18 14 11 10 9 6 5 6 5 5 3 2 5 6 6 5 7 7 6 7 5 9 13 13 14 14 13 12 11 6 2
nan nan 14 14 24 19 18 18 26 23 10 16 28 27 23 19 14 17 18 19 19 13 9 8 6 5 7 4 2 2 2 4 4 7 7 9 3 6 4 5 6 5 10 7 11 9 4 2 2
nan 15 14 12 10 15 24 13 nan nan 20 21 24 27 22 21 17 15 17 16 15 12 10 8 8 7 6 2 1 1 1 2 3 5 4 5 2 5 4 3 4 5 4 6 7 4 6 6 3
11 7 3 12 26 23 7 8 13 15 18 20 33 33 28 26 22 18 13 13 11 11 10 9 8 6 5 5 3 1 1 0 2 2 2 0 1 3 1 2 5 5 5 7 7 5 4 5 7
nan nan nan 13 7 9 14 11 14 19 19 23 29 33 32 32 30 18 14 13 17 17 13 9 9 6 4 4 5 4 2 2 2 1 2 3 2 1 2 5 5 4 6 8 9 8 7 8 8
nan nan nan 4 17 17 14 6 18 12 18 25 27 28 31 33 32 27 21 20 21 20 18 11 9 9 6 5 4 5 3 3 4 3 3 2 2 4 5 7 7 6 6 8 8 6 8 nan nan
nan nan nan 8 20 12 18 20 22 12 12 18 24 23 23 33 35 29 25 22 19 19 21 15 7 7 6 6 5 5 5 2 3 3 4 3 4 6 10 9 8 6 7 10 12 12 8 9 nan
nan nan nan nan 25 17 18 nan nan 17 15 9 14 21 23 20 30 30 27 19 19 24 22 24 5 8 4 3 6 6 8 4 3 3 6 7 7 7 11 11 11 10 10 10 12 12 14 17 19
nan nan nan nan nan 9 21 24 18 20 19 13 14 16 21 25 31 31 30 21 15 20 24 21 8 7 6 5 6 8 8 4 6 6 6 10 11 12 13 12 10 11 13 13 14 16 14 16 8
nan nan nan nan nan nan nan nan 18 20 13 21 23 13 18 24 23 29 28 24 19 16 18 20 11 3 6 6 7 5 2 5 5 5 7 9 10 12 12 8 9 10 12 12 14 12 12 10 10
nan nan nan nan nan nan nan nan 5 19 23 25 28 19 17 16 20 25 24 22 22 19 19 17 13 4 5 5 3 6 8 10 10 7 9 8 9 11 11 13 8 10 10 10 11 10 9 6 10
nan nan nan nan nan nan nan nan nan 7 8 10 18 12 10 18 21 23 23 21 19 18 18 17 17 13 6 8 12 14 15 16 15 12 12 10 11 11 10 10 11 11 11 10 10 9 11 12 11
nan nan nan nan nan nan nan nan nan nan 9 11 11 10 4 7 13 11 16 21 23 20 18 18 18 19 12 11 7 8 10 5 10 11 12 12 13 12 12 11 12 15 13 14 13 15 12 15 12
nan nan nan nan nan nan nan nan nan nan nan nan 9 19 17 6 8 14 15 20 24 19 20 19 20 21 21 13 10 8 6 6 11 13 13 12 13 13 14 14 14 15 15 13 14 12 10 13 15
nan nan nan nan nan nan nan nan nan nan nan nan 9 18 18 5 6 9 12 14 16 16 18 18 20 21 25 23 17 15 13 9 10 13 13 13 11 12 14 14 13 13 16 13 12 12 14 18 18
nan nan nan nan nan nan nan nan nan nan nan nan 19 26 12 7 1 5 10 16 14 14 16 17 21 22 20 21 22 18 15 11 10 12 13 14 13 13 15 14 14 13 12 13 13 14 15 16 16
nan nan nan nan nan nan nan nan nan nan nan nan nan 16 12 7 4 3 11 14 16 13 13 17 20 20 20 19 18 16 14 10 10 10 10 15 14 12 13 15 14 13 13 13 18 16 16 nan nan
nan nan nan nan nan nan nan nan nan nan nan nan 15 20 4 7 2 10 8 11 15 17 18 20 20 20 23 25 17 15 14 13 10 10 10 11 14 13 12 13 13 12 13 13 17 16 15 nan nan
nan nan nan nan nan nan nan nan nan nan nan nan nan 16 7 6 5 7 9 9 10 17 19 17 20 24 25 24 20 17 17 15 12 11 10 10 13 14 13 12 19 20 10 3 10 12 12 11 nan
nan nan nan nan nan nan nan nan nan nan nan nan nan nan nan 22 15 11 6 9 5 10 16 17 19 21 22 24 18 16 14 12 9 9 9 10 11 12 12 15 20 13 11 14 10 8 9 8 8
nan nan nan nan nan nan nan nan nan nan nan nan nan nan nan 14 23 13 8 7 9 15 16 20 16 19 22 21 19 17 15 12 10 9 9 12 10 10 10 11 12 10 11 12 12 9 10 8 7
Wind_Direction
39 74 87 83 88 nan 77 48 64 43 70 77 26 63 41 47 36 41 358 349 339 352 16 16 17 14 1 355 1 356 350 359 3 1 350 357 7 1 346 11 16 11 15 16 18 8 51 14 303
85 78 97 102 nan nan 81 80 72 34 41 39 46 32 79 54 37 324 331 356 340 349 8 17 9 12 4 359 359 356 353 349 356 13 6 16 28 22 11 14 14 9 6 350 2 345 23 280 306
70 94 79 63 68 73 80 80 58 34 16 50 41 43 40 18 333 329 338 345 341 355 7 15 4 7 7 4 5 7 5 357 355 357 13 17 19 22 28 18 15 3 347 346 341 346 351 325 287
97 100 84 78 89 89 81 72 57 39 68 61 25 328 19 28 336 337 331 336 340 356 10 10 6 2 11 11 11 16 11 7 3 355 359 14 18 19 16 12 13 17 6 350 342 354 351 328 293
94 66 138 80 126 93 90 78 46 47 53 52 41 343 339 347 312 336 328 335 337 354 12 14 5 6 14 20 15 14 8 9 359 358 360 10 15 16 9 14 5 16 9 355 346 352 358 326 319
83 77 48 91 62 97 86 28 26 48 29 28 20 329 321 330 334 339 338 335 340 344 9 19 12 7 11 13 11 4 6 7 6 6 0 8 19 20 13 11 5 1 13 8 359 359 352 350 336
110 nan nan 56 24 67 131 350 19 24 22 31 21 78 288 353 346 331 342 335 341 344 0 15 25 16 11 14 10 8 2 359 5 13 13 17 14 19 9 20 22 24 18 15 9 3 352 340 335
84 nan 78 8 36 6 54 42 31 12 35 354 8 17 4 11 352 334 335 324 347 352 3 10 8 23 17 26 7 6 3 4 359 12 27 23 16 24 48 52 40 26 28 15 1 358 357 347 331
147 119 65 44 31 12 29 26 13 20 359 34 7 340 332 325 345 340 333 314 8 9 16 15 3 6 344 1 17 14 3 11 2 19 39 42 71 52 51 57 31 24 16 16 15 12 359 356 332
181 nan 52 33 21 11 36 31 nan 357 353 12 335 309 314 325 340 351 353 346 358 15 18 6 350 360 352 4 77 16 17 32 14 120 106 112 76 75 63 49 29 18 16 13 15 15 2 306 305
nan nan 42 348 22 13 30 43 19 11 357 20 340 334 340 343 359 359 356 3 359 8 10 354 333 347 8 17 155 143 123 49 49 114 128 87 135 94 78 90 62 41 19 22 19 16 43 323 298
nan 78 59 315 3 26 48 34 nan nan 48 358 351 352 354 10 22 23 355 3 5 2 5 349 343 346 9 339 119 197 146 52 58 108 118 168 164 119 87 35 18 20 35 23 7 345 4 327 307
313 116 114 321 337 29 13 354 29 20 26 12 351 353 2 8 22 39 25 357 348 360 10 356 339 355 359 331 348 323 152 74 32 79 107 61 139 128 91 355 321 6 5 19 21 9 15 324 325
nan nan nan 16 24 15 12 34 38 15 8 1 357 1 4 5 9 17 19 15 1 2 6 342 337 340 334 306 339 349 15 348 304 333 56 347 73 254 324 323 324 1 2 11 15 10 355 332 349
nan nan nan 42 341 351 8 47 39 10 28 18 25 11 10 12 9 17 18 11 3 352 340 347 332 323 322 319 316 303 354 19 330 322 305 327 342 325 324 325 332 352 331 338 344 345 340 nan nan
nan nan nan 65 359 353 352 18 57 35 21 8 18 23 3 10 3 16 20 14 358 338 334 318 284 305 325 309 274 270 285 310 300 281 286 346 327 304 299 300 305 320 314 331 340 337 325 319 nan
nan nan nan nan 42 315 27 nan nan 15 358 29 22 26 25 357 1 359 12 9 352 341 336 305 252 276 257 289 250 266 292 292 288 309 312 335 326 304 283 284 289 299 294 300 307 302 310 306 290
nan nan nan nan nan 70 64 56 52 43 24 47 38 13 17 21 9 359 358 2 346 343 354 16 331 271 274 237 227 217 239 279 288 306 315 317 312 309 294 273 273 276 283 290 289 297 299 325 323
nan nan nan nan nan nan nan nan 25 357 35 55 61 32 28 29 15 2 359 359 0 349 354 18 7 301 278 250 242 226 241 263 259 299 330 327 324 318 306 281 276 285 289 287 298 296 299 286 308
nan nan nan nan nan nan nan nan 350 353 17 30 34 21 26 19 7 356 359 2 2 8 13 14 21 334 279 272 278 252 248 249 258 275 294 307 314 302 313 286 301 306 289 297 300 297 284 261 300
nan nan nan nan nan nan nan nan nan 338 0 33 50 71 5 14 8 0 1 10 7 10 8 4 1 355 307 267 239 228 233 234 245 249 261 287 309 300 319 305 291 305 290 297 311 301 286 272 280
nan nan nan nan nan nan nan nan nan nan 10 28 14 52 25 26 356 10 18 13 21 27 21 9 4 3 345 317 278 270 243 263 253 261 265 281 304 311 313 305 292 316 310 298 299 298 271 271 281
nan nan nan nan nan nan nan nan nan nan nan nan 24 12 30 305 16 359 17 13 24 21 16 14 14 15 14 1 351 339 305 258 250 257 274 282 287 299 308 308 308 304 299 309 307 296 272 266 272
nan nan nan nan nan nan nan nan nan nan nan nan 328 43 33 260 24 7 356 344 1 17 11 9 12 18 16 18 18 11 7 322 278 265 276 286 290 294 301 304 314 321 317 309 310 299 286 282 273
nan nan nan nan nan nan nan nan nan nan nan nan 356 23 341 326 5 357 325 340 349 353 11 11 10 16 14 7 5 5 9 345 334 303 290 295 289 291 301 305 305 312 333 311 311 289 294 286 279
nan nan nan nan nan nan nan nan nan nan nan nan nan 341 316 310 256 31 1 357 7 354 15 17 10 6 1 358 359 349 345 335 334 308 290 296 293 299 299 307 309 310 302 304 297 288 283 nan nan
nan nan nan nan nan nan nan nan nan nan nan nan 359 349 301 322 22 46 6 332 12 13 15 14 12 12 5 5 358 342 329 325 324 311 295 288 282 293 312 310 306 298 288 279 290 291 300 nan nan
nan nan nan nan nan nan nan nan nan nan nan nan nan 352 159 321 76 51 1 346 330 16 18 12 7 11 11 1 350 344 344 343 329 327 334 310 289 291 295 304 295 290 277 292 281 274 278 277 nan
nan nan nan nan nan nan nan nan nan nan nan nan nan nan nan 354 348 77 44 6 33 49 16 3 358 7 5 3 2 2 1 354 333 332 330 320 292 293 293 298 301 348 345 313 302 300 292 301 278
nan nan nan nan nan nan nan nan nan nan nan nan nan nan nan 339 334 343 349 332 21 39 5 350 347 1 8 5 2 6 9 356 350 356 344 334 318 296 291 300 316 320 304 295 309 311 297 317 303